{"data":{"norad_id":60199,"epoch":"2026-09-21T20:06:59.473440Z","epoch_age_seconds":65826,"freshness":"FRESH","line1":"1 60199U 24124S   26264.83818835  .00001662  00000+0  60290-4 0  9997","line2":"2 60199  53.1588 127.3849 0001237  93.2493 266.8651 15.34414061125612","mean_motion":15.34414061,"eccentricity":0.0001237,"inclination_deg":53.1588,"raan_deg":127.3849,"arg_perigee_deg":93.2493,"mean_anomaly_deg":266.8651,"bstar":6.029e-5,"rev_number":12561,"period_min":93.846898083137,"perigee_km":461.81524150298,"apogee_km":463.50765503908,"semimajor_km":6840.798448271,"source":"CELESTRAK","updated_at":"2026-09-22T09:00:49.184970Z"}}